User: anonymous   Login
Location: Brabourne
(51.1333°N, 1.0000°E)
Time: 17:34:50
(UTC+00:00)
Language:

NOSS 2-3 (E) - Orbit

View from above orbital plane
View from above orbital plane
View from above satellite
View from above satellite

Ground track
Ground track

The orbit data is extracted from the following two-line orbital elements,

1 23936U 96029E   21261.10294049 0.00000080  00000-0  27489-4 0    05
2 23936  63.3514  11.9568 0737000  26.5119 333.4881 13.40990260    02
Epoch (UTC): 18 September 2021 02:28:14
Eccentricity: 0.0737000
inclination: 63.3514°
perigee height: 554 km
apogee height: 1657 km
right ascension of ascending node: 11.9568°
argument of perigee: 26.5119°
revolutions per day: 13.40990260
mean anomaly at epoch: 333.4881°
orbit number at epoch: 0

The dashed part of the orbit path shows where the satellite is in the earth's shadow,  

DLR